Location: Terra Rouge Observatory
(46.0000°N, 62.7500°W)
Time: 23:47:16
(UTC-03:00)

NOSS 3-1 (A) - Visible Passes

Search period start: 20 April 2014 00:00
Search period end: 30 April 2014 00:00
Orbit: 904 x 1309 km, 63.4° (Epoch: 17 April)

Date Brightness Start Highest point End Pass type
(mag) Time Alt. Az. Time Alt. Az. Time Alt. Az.
20 Apr 5.7 01:14:54 10° NNW 01:20:44 26° NNE 01:26:59 10° E visible
20 Apr 4.2 03:05:43 10° NW 03:13:04 67° NE 03:20:59 10° SE visible
20 Apr 4.5 04:57:08 10° NW 05:03:46 35° WSW 05:10:47 10° S visible
20 Apr 5.0 20:42:49 10° WSW 20:48:45 42° NW 20:55:16 10° NNE visible
20 Apr 6.1 22:36:55 10° WNW 22:41:42 20° N 22:46:48 10° NE visible
21 Apr 5.9 00:30:05 10° NNW 00:35:24 22° NNE 00:41:05 10° ENE visible
21 Apr 4.7 02:21:06 10° NNW 02:28:10 50° NE 02:35:48 10° ESE visible
21 Apr 4.1 04:12:08 10° NW 04:19:19 51° WSW 04:26:59 10° SSE visible
21 Apr 5.9 21:51:15 10° WNW 21:56:19 23° NNW 22:01:46 10° NNE visible
21 Apr 6.1 23:45:05 10° NW 23:50:00 20° N 23:55:12 10° NE visible
22 Apr 5.2 01:36:29 10° NNW 01:43:09 38° NE 01:50:19 10° ESE visible
22 Apr 3.9 03:27:19 10° NW 03:34:44 73° SW 03:42:43 10° SSE visible
22 Apr 5.2 05:20:10 10° WNW 05:24:45 17° WSW 05:29:29 10° SW visible
22 Apr 5.7 21:05:37 10° W 21:11:03 28° NNW 21:16:55 10° NNE visible
22 Apr 6.1 22:59:52 10° NW 23:04:32 19° N 23:09:30 10° NE visible
23 Apr 5.5 00:51:50 10° NNW 00:58:00 30° NNE 01:04:37 10° E visible
23 Apr 4.0 02:42:37 10° NW 02:50:02 81° NE 02:58:04 10° SE visible
23 Apr 4.8 04:34:24 10° WNW 04:40:29 27° WSW 04:46:52 10° SSW visible
23 Apr 6.1 22:14:24 10° NW 22:19:05 19° N 22:24:02 10° NE visible
24 Apr 5.8 00:07:05 10° NNW 00:12:44 24° NNE 00:18:45 10° ENE visible
24 Apr 4.4 01:57:58 10° NW 02:05:14 60° NE 02:13:04 10° SE visible
24 Apr 4.3 03:49:13 10° NW 03:56:06 40° WSW 04:00:23 23° SSW visible
24 Apr 6.0 21:28:47 10° WNW 21:33:39 21° NNW 21:38:52 10° NNE visible
24 Apr 5.9 23:22:13 10° NNW 23:27:22 21° NNE 23:32:50 10° ENE visible
25 Apr 4.8 01:13:21 10° NNW 01:20:17 44° NE 01:27:16 12° ESE visible
25 Apr 4.0 03:04:18 10° NW 03:11:36 59° WSW 03:14:33 38° S visible
25 Apr 5.5 04:58:30 10° W 05:01:20 12° WSW 05:01:52 12° WSW visible
25 Apr 5.8 20:43:07 10° WNW 20:48:19 24° NNW 20:53:55 10° NNE visible
25 Apr 6.0 22:37:08 10° NW 22:41:56 19° N 22:47:01 10° NE visible
26 Apr 5.2 00:28:44 10° NNW 00:35:13 34° NNE 00:42:11 10° E visible
26 Apr 3.8 02:19:32 10° NW 02:26:59 83° SW 02:29:47 45° SSE visible
26 Apr 5.1 04:11:53 10° WNW 04:17:08 21° WSW 04:17:08 21° WSW visible
26 Apr 6.0 21:51:49 10° NW 21:56:28 19° N 22:01:24 10° NE visible
26 Apr 5.5 23:44:03 10° NNW 23:50:01 27° NNE 23:56:24 10° E visible
27 Apr 4.1 01:34:51 10° NW 01:42:14 72° NE 01:45:26 39° ESE visible
27 Apr 4.7 03:26:24 10° NW 03:32:48 32° WSW 03:32:48 32° WSW visible
27 Apr 6.0 21:06:17 10° NW 21:11:01 20° N 21:16:03 10° NE visible
27 Apr 5.8 22:59:16 10° NNW 23:04:43 23° NNE 23:10:31 10° ENE visible
28 Apr 4.5 00:50:14 10° NW 00:57:22 53° NE 01:01:20 29° ESE visible
28 Apr 4.2 02:41:20 10° NW 02:48:25 47° WSW 02:48:43 46° SW visible
28 Apr 5.9 22:14:19 10° NW 22:19:19 20° NNE 22:24:37 10° ENE visible
29 Apr 4.9 00:05:37 10° NNW 00:12:23 40° NE 00:17:24 19° E visible
29 Apr 3.9 01:56:29 10° NW 02:03:52 68° WSW 02:04:48 63° SSW visible
29 Apr 5.6 03:49:43 10° WNW 03:52:12 14° W 03:52:12 14° W visible
29 Apr 6.0 21:29:09 10° NW 21:33:52 19° N 21:38:51 10° NE visible
29 Apr 5.3 23:20:58 10° NNW 23:27:16 31° NNE 23:33:35 12° E visible
